| time (UTC) | temp F | wind direction | speed MPH | gust MPH | rain 1hr in | rain 24hr in | rain mn in | humidity % | barometer mb |
| 20260509151617 | 64 | 137 | 5.0 | 10.0 | 0.00 | 0.00 | 0.00 | 32 | 1019.3 |
| 20260509150055 | 63 | 131 | 5.0 | 10.0 | 0.00 | 0.00 | 0.00 | 33 | 1019.3 |
| 20260509144558 | 64 | 134 | 4.0 | 9.0 | 0.00 | 0.00 | 0.00 | 33 | 1019.3 |
| 20260509143049 | 64 | 133 | 3.0 | 7.0 | 0.00 | 0.00 | 0.00 | 33 | 1019.4 |
| 20260509141608 | 65 | 118 | 3.0 | 9.0 | 0.00 | 0.00 | 0.00 | 32 | 1019.5 |
| 20260509140132 | 65 | 106 | 3.0 | 9.0 | 0.00 | 0.00 | 0.00 | 32 | 1019.5 |
| 20260509134620 | 65 | 107 | 2.0 | 6.0 | 0.00 | 0.00 | 0.00 | 32 | 1019.6 |
| 20260509133050 | 65 | 149 | 3.0 | 6.0 | 0.00 | 0.00 | 0.00 | 32 | 1019.7 |
| 20260509131637 | 66 | 141 | 4.0 | 7.0 | 0.00 | 0.00 | 0.00 | 32 | 1019.7 |
| 20260509124549 | 65 | 122 | 2.0 | 5.0 | 0.00 | 0.00 | 0.00 | 32 | 1019.8 |
| 20260509123114 | 66 | 118 | 2.0 | 8.0 | 0.00 | 0.00 | 0.00 | 32 | 1019.7 |
| 20260509121552 | 67 | 146 | 3.0 | 6.0 | 0.00 | 0.00 | 0.00 | 31 | 1019.6 |
| 20260509120058 | 67 | 108 | 3.0 | 7.0 | 0.00 | 0.00 | 0.00 | 31 | 1019.5 |
| 20260509114601 | 67 | 138 | 3.0 | 8.0 | 0.00 | 0.00 | 0.00 | 31 | 1019.2 |
| 20260509113054 | 68 | 122 | 2.0 | 6.0 | 0.00 | 0.00 | 0.00 | 31 | 1019.0 |
| 20260509111549 | 69 | 151 | 5.0 | 12.0 | 0.00 | 0.00 | 0.00 | 30 | 1018.8 |
| 20260509110052 | 68 | 124 | 2.0 | 4.0 | 0.00 | 0.00 | 0.00 | 30 | 1019.0 |
| 20260509104556 | 69 | 135 | 1.0 | 7.0 | 0.00 | 0.00 | 0.00 | 29 | 1019.2 |
| 20260509103047 | 70 | 131 | 1.0 | 3.0 | 0.00 | 0.00 | 0.00 | 29 | 1018.9 |
| 20260509101548 | 71 | 132 | 3.0 | 5.0 | 0.00 | 0.00 | 0.00 | 28 | 1018.6 |
| 20260509100047 | 72 | 145 | 2.0 | 8.0 | 0.00 | 0.00 | 0.00 | 27 | 1018.6 |
| 20260509094547 | 73 | 93 | 6.0 | 12.0 | 0.00 | 0.00 | 0.00 | 26 | 1018.4 |
| 20260509093054 | 73 | 106 | 5.0 | 11.0 | 0.00 | 0.00 | 0.00 | 26 | 1018.3 |
| 20260509091549 | 74 | 86 | 7.0 | 16.0 | 0.00 | 0.00 | 0.00 | 25 | 1018.2 |
| 20260509090101 | 75 | 141 | 5.0 | 14.0 | 0.00 | 0.00 | 0.00 | 25 | 1017.9 |
| 20260509084559 | 76 | 93 | 11.0 | 14.0 | 0.00 | 0.00 | 0.00 | 25 | 1017.8 |
| 20260509083048 | 76 | 137 | 8.0 | 16.0 | 0.00 | 0.00 | 0.00 | 24 | 1017.7 |
| 20260509081551 | 77 | 85 | 6.0 | 15.0 | 0.00 | 0.00 | 0.00 | 24 | 1017.5 |
| 20260509080049 | 77 | 108 | 10.0 | 18.0 | 0.00 | 0.00 | 0.00 | 23 | 1017.4 |
| 20260509074554 | 78 | 93 | 10.0 | 14.0 | 0.00 | 0.00 | 0.00 | 23 | 1017.3 |
| 20260509073051 | 77 | 155 | 8.0 | 13.0 | 0.00 | 0.00 | 0.00 | 23 | 1017.3 |
| 20260509071551 | 78 | 108 | 10.0 | 16.0 | 0.00 | 0.00 | 0.00 | 23 | 1017.4 |
| 20260509070104 | 79 | 90 | 12.0 | 18.0 | 0.00 | 0.00 | 0.00 | 23 | 1017.5 |
| 20260509064549 | 79 | 73 | 11.0 | 17.0 | 0.00 | 0.00 | 0.00 | 22 | 1017.4 |
| 20260509063049 | 78 | 140 | 8.0 | 15.0 | 0.00 | 0.00 | 0.00 | 23 | 1017.3 |
| 20260509061607 | 78 | 106 | 8.0 | 17.0 | 0.00 | 0.00 | 0.00 | 23 | 1017.5 |
| 20260509060052 | 79 | 66 | 9.0 | 18.0 | 0.00 | 0.00 | 0.00 | 23 | 1017.5 |
| 20260509054612 | 78 | 139 | 5.0 | 16.0 | 0.00 | 0.00 | 0.00 | 23 | 1017.6 |
| 20260509053141 | 78 | 140 | 9.0 | 15.0 | 0.00 | 0.00 | 0.00 | 23 | 1017.8 |
| 20260509051555 | 78 | 72 | 7.0 | 19.0 | 0.00 | 0.00 | 0.00 | 24 | 1017.9 |
| 20260509050056 | 77 | 180 | 4.0 | 16.0 | 0.00 | 0.00 | 0.00 | 25 | 1018.0 |
| 20260509044550 | 77 | 135 | 8.0 | 14.0 | 0.00 | 0.00 | 0.00 | 24 | 1018.3 |
| 20260509043051 | 77 | 74 | 8.0 | 21.0 | 0.00 | 0.00 | 0.00 | 25 | 1018.6 |
| 20260509041551 | 76 | 60 | 7.0 | 18.0 | 0.00 | 0.00 | 0.00 | 25 | 1018.8 |
| 20260509040107 | 75 | 112 | 12.0 | 17.0 | 0.00 | 0.00 | 0.00 | 25 | 1019.1 |
| 20260509034609 | 76 | 92 | 11.0 | 21.0 | 0.00 | 0.00 | 0.00 | 25 | 1019.4 |
| 20260509033052 | 76 | 77 | 10.0 | 20.0 | 0.00 | 0.00 | 0.00 | 25 | 1019.6 |
| 20260509031553 | 76 | 66 | 11.0 | 20.0 | 0.00 | 0.00 | 0.00 | 25 | 1019.7 |
| 20260509024552 | 74 | 108 | 15.0 | 19.0 | 0.00 | 0.00 | 0.00 | 25 | 1020.4 |
| 20260509023140 | 73 | 103 | 11.0 | 18.0 | 0.00 | 0.00 | 0.00 | 25 | 1020.8 |
| 20260509021608 | 72 | 83 | 10.0 | 20.0 | 0.00 | 0.00 | 0.00 | 26 | 1021.0 |
| 20260509020050 | 72 | 88 | 12.0 | 20.0 | 0.00 | 0.00 | 0.00 | 26 | 1021.1 |
| 20260509014646 | 71 | 77 | 11.0 | 19.0 | 0.00 | 0.00 | 0.00 | 26 | 1021.2 |
| 20260509013103 | 70 | 100 | 11.0 | 18.0 | 0.00 | 0.00 | 0.00 | 27 | 1021.3 |
| 20260509011605 | 69 | 131 | 11.0 | 21.0 | 0.00 | 0.00 | 0.00 | 28 | 1021.4 |
| 20260509010149 | 68 | 102 | 15.0 | 23.0 | 0.00 | 0.00 | 0.00 | 29 | 1021.4 |
| 20260509004633 | 67 | 79 | 11.0 | 19.0 | 0.00 | 0.00 | 0.00 | 29 | 1021.3 |
| 20260509003111 | 66 | 92 | 14.0 | 21.0 | 0.00 | 0.00 | 0.00 | 31 | 1021.4 |
| 20260509000201 | 64 | 96 | 9.0 | 18.0 | 0.00 | 0.00 | 0.00 | 34 | 1021.4 |
| 20260508190055 | 62 | 106 | 7.0 | 12.0 | 0.00 | 0.00 | 0.00 | 36 | 1019.7 |
| 20260508184713 | 62 | 63 | 8.0 | 13.0 | 0.00 | 0.00 | 0.00 | 36 | 1019.8 |
| 20260508183138 | 62 | 93 | 8.0 | 13.0 | 0.00 | 0.00 | 0.00 | 36 | 1019.8 |
| 20260508181850 | 63 | 85 | 11.0 | 15.0 | 0.00 | 0.00 | 0.00 | 35 | 1019.8 |
| 20260508180324 | 63 | 99 | 9.0 | 15.0 | 0.00 | 0.00 | 0.00 | 35 | 1019.8 |
| 20260508173407 | 64 | 95 | 10.0 | 14.0 | 0.00 | 0.00 | 0.00 | 34 | 1020.1 |
| 20260508171601 | 64 | 113 | 9.0 | 13.0 | 0.00 | 0.00 | 0.00 | 34 | 1020.2 |
| 20260508161558 | 63 | 101 | 5.0 | 10.0 | 0.00 | 0.00 | 0.00 | 35 | 1020.1 |
| 20260508160108 | 64 | 116 | 5.0 | 9.0 | 0.00 | 0.00 | 0.00 | 35 | 1020.1 |
| 20260508154815 | 63 | 105 | 3.0 | 8.0 | 0.00 | 0.00 | 0.00 | 36 | 1020.1 |
| 20260508153123 | 64 | 120 | 5.0 | 10.0 | 0.00 | 0.00 | 0.00 | 35 | 1020.1 |